Location: Ottawa
(45.4170°N, 75.7000°W)
Time: 01:04:05
(UTC-04:00)

Iridium 91 - Visible Passes

Search period start: 24 August 2016 00:00
Search period end: 03 September 2016 00:00
Orbit: 776 x 779 km, 86.4° (Epoch: 23 August)

Date Brightness Start Highest point End Pass type
(mag) Time Alt. Az. Time Alt. Az. Time Alt. Az.
24 Aug 8.8 04:52:11 10° E 04:54:14 12° ENE 04:56:18 10° NE visible
26 Aug 7.7 05:22:50 10° SE 05:27:19 30° E 05:31:50 10° NNE visible
27 Aug 8.4 04:50:45 10° ESE 04:54:06 18° ENE 04:57:28 10° NE visible
29 Aug 6.9 05:22:26 10° SSE 05:27:19 42° E 05:32:13 10° NNE visible
30 Aug 7.9 04:49:54 10° SE 04:54:01 24° E 04:58:10 10° NNE visible
31 Aug 8.5 04:18:14 10° ESE 04:20:51 14° ENE 04:23:27 10° NE visible
01 Sep 6.2 05:22:14 10° SSE 05:27:21 60° E 05:32:30 10° N visible
02 Sep 7.3 04:49:20 10° SSE 04:53:58 34° E 04:58:38 10° NNE visible
